| time (UTC) | temp F | wind direction | speed MPH | gust MPH | rain 1hr in | rain 24hr in | rain mn in | humidity % | barometer mb |
| 20260508141606 | 41 | 271 | 5.0 | 8.0 | 0.00 | 0.69 | 0.01 | 95 | 1002.5 |
| 20260508140056 | 41 | 271 | 5.0 | 8.0 | 0.00 | 0.69 | 0.01 | 95 | 1002.7 |
| 20260508134554 | 40 | 274 | 4.0 | 6.0 | 0.00 | 0.69 | 0.01 | 96 | 1002.7 |
| 20260508133054 | 40 | 263 | 5.0 | 9.0 | 0.00 | 0.69 | 0.01 | 95 | 1002.7 |
| 20260508131603 | 40 | 283 | 5.0 | 8.0 | 0.00 | 0.69 | 0.01 | 95 | 1002.6 |
| 20260508130044 | 40 | 265 | 5.0 | 9.0 | 0.00 | 0.69 | 0.01 | 95 | 1002.5 |
| 20260508124538 | 41 | 246 | 7.0 | 9.0 | 0.00 | 0.69 | 0.01 | 95 | 1002.3 |
| 20260508123030 | 42 | 259 | 5.0 | 8.0 | 0.00 | 0.69 | 0.01 | 95 | 1002.0 |
| 20260508121523 | 42 | 283 | 4.0 | 6.0 | 0.00 | 0.69 | 0.01 | 95 | 1002.2 |
| 20260508120019 | 43 | 346 | 3.0 | 7.0 | 0.00 | 0.69 | 0.01 | 95 | 1002.3 |
| 20260508114510 | 44 | 350 | 4.0 | 6.0 | 0.00 | 0.69 | 0.01 | 96 | 1001.8 |
| 20260508113006 | 44 | 355 | 3.0 | 7.0 | 0.00 | 0.69 | 0.01 | 95 | 1002.1 |
| 20260508111508 | 46 | 355 | 2.0 | 6.0 | 0.00 | 0.69 | 0.01 | 96 | 1002.1 |
| 20260508110006 | 45 | 142 | 3.0 | 6.0 | 0.00 | 0.69 | 0.01 | 96 | 1002.3 |
| 20260508104505 | 43 | 142 | 4.0 | 10.0 | 0.00 | 0.69 | 0.01 | 96 | 1002.4 |
| 20260508103009 | 42 | 123 | 0.0 | 3.0 | 0.00 | 0.69 | 0.01 | 96 | 1002.4 |
| 20260508101502 | 42 | 123 | 4.0 | 6.0 | 0.00 | 0.69 | 0.01 | 96 | 1002.1 |
| 20260508100002 | 41 | 337 | 0.0 | 0.0 | 0.01 | 0.69 | 0.01 | 96 | 1002.2 |
| 20260508094600 | 40 | 337 | 0.0 | 0.0 | 0.01 | 0.69 | 0.01 | 95 | 1002.1 |
| 20260508093105 | 40 | 337 | 0.0 | 3.0 | 0.01 | 0.69 | 0.01 | 95 | 1002.1 |
| 20260508091549 | 40 | 337 | 2.0 | 3.0 | 0.01 | 0.69 | 0.01 | 95 | 1001.9 |
| 20260508090046 | 41 | 335 | 0.0 | 2.0 | 0.00 | 0.68 | 0.00 | 95 | 1002.1 |
| 20260508084542 | 42 | 335 | 1.0 | 3.0 | 0.00 | 0.68 | 0.00 | 95 | 1002.1 |
| 20260508083039 | 42 | 336 | 0.0 | 0.0 | 0.00 | 0.68 | 0.00 | 95 | 1001.7 |
| 20260508081537 | 42 | 336 | 0.0 | 0.0 | 0.00 | 0.68 | 0.00 | 95 | 1001.8 |
| 20260508080035 | 42 | 336 | 0.0 | 0.0 | 0.00 | 0.68 | 0.00 | 95 | 1001.4 |
| 20260508074533 | 42 | 336 | 0.0 | 1.0 | 0.00 | 0.68 | 0.00 | 95 | 1001.6 |
| 20260508073036 | 41 | 336 | 0.0 | 3.0 | 0.00 | 0.68 | 0.00 | 95 | 1001.7 |
| 20260508071534 | 41 | 336 | 2.0 | 3.0 | 0.00 | 0.68 | 0.00 | 95 | 1001.9 |
| 20260508070030 | 41 | 336 | 2.0 | 4.0 | 0.00 | 0.68 | 0.00 | 95 | 1001.8 |
| 20260508064533 | 41 | 339 | 2.0 | 4.0 | 0.00 | 0.68 | 0.00 | 95 | 1002.2 |
| 20260508063035 | 41 | 339 | 3.0 | 4.0 | 0.00 | 0.68 | 0.00 | 95 | 1002.0 |
| 20260508061526 | 41 | 340 | 1.0 | 4.0 | 0.00 | 0.68 | 0.00 | 95 | 1002.0 |
| 20260508060024 | 41 | 342 | 1.0 | 7.0 | 0.00 | 0.68 | 0.00 | 95 | 1002.1 |
| 20260508054522 | 41 | 348 | 4.0 | 7.0 | 0.00 | 0.68 | 0.00 | 95 | 1001.8 |
| 20260508053015 | 42 | 327 | 3.0 | 6.0 | 0.00 | 0.68 | 0.00 | 94 | 1002.0 |
| 20260508051511 | 42 | 322 | 2.0 | 5.0 | 0.00 | 0.68 | 0.00 | 94 | 1002.0 |
| 20260508050008 | 43 | 323 | 1.0 | 4.0 | 0.00 | 0.68 | 0.00 | 94 | 1001.9 |
| 20260508044502 | 44 | 323 | 2.0 | 4.0 | 0.00 | 0.68 | 0.00 | 94 | 1002.0 |
| 20260508043104 | 45 | 318 | 3.0 | 5.0 | 0.00 | 0.68 | 0.00 | 95 | 1001.9 |
| 20260508041600 | 45 | 314 | 2.0 | 4.0 | 0.00 | 0.68 | 0.00 | 94 | 1002.0 |
| 20260508040052 | 45 | 265 | 2.0 | 3.0 | 0.00 | 0.68 | 0.00 | 94 | 1002.1 |
| 20260508034547 | 46 | 264 | 2.0 | 3.0 | 0.00 | 0.68 | 0.00 | 94 | 1001.8 |
| 20260508033044 | 47 | 264 | 1.0 | 2.0 | 0.00 | 0.68 | 0.00 | 94 | 1001.8 |
| 20260508031541 | 47 | 264 | 2.0 | 3.0 | 0.00 | 0.68 | 0.00 | 94 | 1001.9 |
| 20260508030040 | 46 | 264 | 2.0 | 3.0 | 0.00 | 0.68 | 0.00 | 95 | 1001.9 |
| 20260508024533 | 46 | 265 | 0.0 | 0.0 | 0.00 | 0.68 | 0.68 | 94 | 1002.2 |
| 20260508023033 | 46 | 265 | 0.0 | 1.0 | 0.01 | 0.68 | 0.68 | 94 | 1002.1 |
| 20260508021536 | 46 | 265 | 1.0 | 2.0 | 0.01 | 0.68 | 0.68 | 94 | 1002.4 |
| 20260508020043 | 46 | 265 | 0.0 | 4.0 | 0.02 | 0.68 | 0.68 | 94 | 1001.9 |
| 20260508014532 | 46 | 264 | 2.0 | 5.0 | 0.02 | 0.68 | 0.68 | 94 | 1002.4 |
| 20260508013034 | 46 | 263 | 3.0 | 4.0 | 0.02 | 0.67 | 0.67 | 94 | 1002.7 |
| 20260508011531 | 46 | 276 | 4.0 | 7.0 | 0.02 | 0.67 | 0.67 | 93 | 1002.5 |
| 20260508010028 | 46 | 281 | 5.0 | 9.0 | 0.02 | 0.66 | 0.66 | 93 | 1002.2 |
| 20260508004523 | 47 | 273 | 4.0 | 8.0 | 0.02 | 0.66 | 0.66 | 93 | 1002.3 |
| 20260508003016 | 48 | 266 | 3.0 | 5.0 | 0.02 | 0.65 | 0.65 | 93 | 1002.2 |
| 20260508001528 | 49 | 265 | 4.0 | 10.0 | 0.02 | 0.65 | 0.65 | 92 | 1002.4 |
| 20260508000006 | 50 | 246 | 6.0 | 11.0 | 0.02 | 0.65 | 0.65 | 91 | 1002.3 |
| 20260507234503 | 52 | 229 | 8.0 | 12.0 | 0.01 | 0.64 | 0.64 | 92 | 1002.1 |
| 20260507233006 | 52 | 260 | 3.0 | 9.0 | 0.00 | 0.63 | 0.63 | 92 | 1002.0 |
| 20260507231501 | 53 | 241 | 2.0 | 4.0 | 0.00 | 0.63 | 0.63 | 92 | 1001.8 |
| 20260507230004 | 52 | 241 | 1.0 | 2.0 | 0.00 | 0.63 | 0.63 | 92 | 1001.7 |
| 20260507224603 | 51 | 241 | 0.0 | 10.0 | 0.00 | 0.63 | 0.63 | 90 | 1001.7 |
| 20260507223056 | 53 | 192 | 6.0 | 14.0 | 0.00 | 0.63 | 0.63 | 92 | 1001.5 |
| 20260507221555 | 53 | 134 | 9.0 | 16.0 | 0.00 | 0.63 | 0.63 | 92 | 1001.2 |
| 20260507220054 | 53 | 131 | 9.0 | 13.0 | 0.00 | 0.63 | 0.63 | 92 | 1001.2 |
| 20260507214559 | 53 | 140 | 9.0 | 18.0 | 0.00 | 0.63 | 0.63 | 92 | 1001.2 |
| 20260507213053 | 54 | 106 | 12.0 | 18.0 | 0.01 | 0.63 | 0.63 | 92 | 1001.3 |
| 20260507211553 | 54 | 96 | 12.0 | 21.0 | 0.01 | 0.63 | 0.63 | 92 | 1001.3 |
| 20260507210053 | 54 | 134 | 13.0 | 23.0 | 0.01 | 0.63 | 0.63 | 92 | 1001.3 |
| 20260507204556 | 54 | 129 | 11.0 | 19.0 | 0.01 | 0.63 | 0.63 | 92 | 1001.4 |
| 20260507203051 | 54 | 131 | 11.0 | 19.0 | 0.00 | 0.62 | 0.62 | 93 | 1001.0 |
| 20260507201557 | 53 | 104 | 13.0 | 19.0 | 0.04 | 0.62 | 0.62 | 93 | 1001.1 |
| 20260507200049 | 53 | 97 | 11.0 | 22.0 | 0.09 | 0.62 | 0.62 | 93 | 1000.5 |
| 20260507194547 | 53 | 96 | 14.0 | 23.0 | 0.10 | 0.62 | 0.62 | 92 | 1000.6 |
| 20260507193047 | 54 | 81 | 12.0 | 21.0 | 0.12 | 0.62 | 0.62 | 92 | 1001.4 |
| 20260507191536 | 54 | 101 | 11.0 | 17.0 | 0.11 | 0.57 | 0.57 | 92 | 1002.2 |
| 20260507190032 | 55 | 110 | 10.0 | 21.0 | 0.11 | 0.54 | 0.54 | 92 | 1002.8 |
| 20260507184530 | 55 | 99 | 10.0 | 17.0 | 0.16 | 0.52 | 0.52 | 92 | 1002.9 |
| 20260507183030 | 54 | 117 | 11.0 | 18.0 | 0.21 | 0.50 | 0.50 | 92 | 1002.8 |
| 20260507181528 | 54 | 137 | 14.0 | 25.0 | 0.34 | 0.47 | 0.47 | 92 | 1003.3 |
| 20260507180027 | 54 | 129 | 13.0 | 21.0 | 0.40 | 0.43 | 0.43 | 92 | 1003.3 |
| 20260507174535 | 55 | 144 | 14.0 | 20.0 | 0.36 | 0.36 | 0.36 | 91 | 1003.7 |
| 20260507173027 | 55 | 140 | 12.0 | 24.0 | 0.28 | 0.28 | 0.28 | 90 | 1004.2 |
| 20260507171520 | 55 | 146 | 17.0 | 28.0 | 0.13 | 0.13 | 0.13 | 89 | 1003.6 |
| 20260507170027 | 57 | 164 | 16.0 | 30.0 | 0.02 | 0.02 | 0.02 | 86 | 1003.3 |
| 20260507164517 | 58 | 145 | 16.0 | 38.0 | 0.00 | 0.00 | 0.00 | 83 | 1003.1 |
| 20260507163016 | 59 | 148 | 24.0 | 40.0 | 0.00 | 0.00 | 0.00 | 81 | 1002.9 |
| 20260507161515 | 59 | 126 | 24.0 | 40.0 | 0.00 | 0.00 | 0.00 | 80 | 1003.5 |
| 20260507160015 | 60 | 158 | 25.0 | 40.0 | 0.00 | 0.00 | 0.00 | 79 | 1003.5 |
| 20260507154512 | 60 | 135 | 24.0 | 36.0 | 0.00 | 0.00 | 0.00 | 79 | 1003.8 |
| 20260507153010 | 60 | 148 | 25.0 | 38.0 | 0.00 | 0.00 | 0.00 | 79 | 1003.9 |
| 20260507151507 | 61 | 149 | 21.0 | 38.0 | 0.00 | 0.00 | 0.00 | 77 | 1004.3 |
| 20260507150004 | 61 | 123 | 22.0 | 38.0 | 0.00 | 0.00 | 0.00 | 77 | 1004.9 |
| 20260507144556 | 61 | 157 | 22.0 | 36.0 | 0.00 | 0.00 | 0.00 | 76 | 1005.2 |
| 20260507143155 | 61 | 162 | 22.0 | 37.0 | 0.00 | 0.00 | 0.00 | 77 | 1005.4 |